Tracking 29892 objects as of 21-Nov-2024
HD Live streaming from Space Station
objects crossing your sky now

COSMOS 1275 DEB

Track COSMOS 1275 DEB now!
10-day predictions


NORAD ID: 42194
Int'l Code: 1981-053TJ
Perigee: 854.7 km
Apogee: 1,152.5 km
Inclination: 82.8 °
Period: 105.0 minutes
Semi major axis: 7374 km
RCS: Unknown
Launch date: June 4, 1981
Source: Commonwealth of Independent States (former USSR) (CIS)
Launch site: PLESETSK MISSILE AND SPACE COMPLEX (PKMTR)

Note: This is SATELLITE DEBRIS
Your satellite tracking list
Your tracking list is empty




NASA's NSSDC Master Catalog

Two Line Element Set (TLE):
1 42194U 81053TJ  24321.84708510  .00001944  00000-0  18777-2 0  9992
2 42194  82.8339 158.3304 0201916 340.0591  19.2748 13.70854678547859
Source of the keplerian elements: AFSPC